Time,TemperatureF,DewpointF,PressureIn,WindDirection,WindDirectionDegrees,WindSpeedMPH,WindSpeedGustMPH,Humidity,HourlyPrecipIn,Conditions,Clouds,dailyrainin,SoftwareType,DateUTC
2013-07-03 00:17:00,53.0,-99.9,-100.00,South,184,0.0,0.0,-999,-99.99,,,-99.99,,2013-07-03 08:17:00,
2013-07-03 00:25:00,53.0,-99.9,-100.00,South,184,0.0,0.0,-999,-99.99,,,-99.99,,2013-07-03 08:25:00,
2013-07-03 00:38:00,53.0,-99.9,-100.00,South,184,0.0,0.0,-999,-99.99,,,-99.99,,2013-07-03 08:38:00,
2013-07-03 00:48:00,53.0,-99.9,-100.00,South,184,0.0,0.0,-999,-99.99,,,-99.99,,2013-07-03 08:48:00,
2013-07-03 00:55:00,51.0,-99.9,-100.00,SSW,203,0.0,0.0,-999,-99.99,,,-99.99,,2013-07-03 08:55:00,
2013-07-03 01:27:00,51.0,-99.9,-100.00,SSW,203,0.0,0.0,-999,-99.99,,,-99.99,,2013-07-03 09:27:00,
2013-07-03 01:41:00,51.0,-99.9,-100.00,SSW,203,0.0,0.0,-999,-99.99,,,-99.99,,2013-07-03 09:41:00,
2013-07-03 01:48:00,51.0,-99.9,-100.00,SSW,203,0.0,0.0,-999,-99.99,,,-99.99,,2013-07-03 09:48:00,
2013-07-03 04:17:00,49.0,-99.9,-100.00,NE,36,0.0,0.0,-999,-99.99,,,-99.99,,2013-07-03 12:17:00,
2013-07-03 04:27:00,49.0,-99.9,-100.00,NE,36,0.0,0.0,-999,-99.99,,,-99.99,,2013-07-03 12:27:00,
2013-07-03 04:38:00,49.0,-99.9,-100.00,NE,36,0.0,0.0,-999,-99.99,,,-99.99,,2013-07-03 12:38:00,
2013-07-03 04:48:00,49.0,-99.9,-100.00,NE,36,0.0,0.0,-999,-99.99,,,-99.99,,2013-07-03 12:48:00,
2013-07-03 04:54:00,48.0,-99.9,-100.00,NNE,18,0.0,0.0,-999,-99.99,,,-99.99,,2013-07-03 12:54:00,
2013-07-03 05:17:00,48.0,-99.9,-100.00,NNE,18,0.0,0.0,-999,-99.99,,,-99.99,,2013-07-03 13:17:00,
2013-07-03 05:49:00,48.0,-99.9,-100.00,NNE,18,0.0,0.0,-999,-99.99,,,-99.99,,2013-07-03 13:49:00,
2013-07-03 06:55:00,49.0,-99.9,-100.00,NE,56,0.0,0.0,-999,-99.99,,,-99.99,,2013-07-03 14:55:00,
2013-07-03 07:27:00,49.0,-99.9,-100.00,NE,56,0.0,0.0,-999,-99.99,,,-99.99,,2013-07-03 15:27:00,
2013-07-03 07:38:00,49.0,-99.9,-100.00,NE,56,0.0,0.0,-999,-99.99,,,-99.99,,2013-07-03 15:38:00,
2013-07-03 07:50:00,49.0,-99.9,-100.00,NE,56,0.0,0.0,-999,-99.99,,,-99.99,,2013-07-03 15:50:00,
2013-07-03 09:17:00,51.0,-99.9,-100.00,NE,56,0.0,0.0,-999,-99.99,,,-99.99,,2013-07-03 17:17:00,
2013-07-03 09:27:00,51.0,-99.9,-100.00,NE,56,0.0,0.0,-999,-99.99,,,-99.99,,2013-07-03 17:27:00,
2013-07-03 09:43:00,51.0,-99.9,-100.00,NE,56,0.0,0.0,-999,-99.99,,,-99.99,,2013-07-03 17:43:00,
2013-07-03 09:50:00,51.0,-99.9,-100.00,NE,56,0.0,0.0,-999,-99.99,,,-99.99,,2013-07-03 17:50:00,
2013-07-03 10:17:00,54.0,-99.9,-100.00,NE,56,0.0,0.0,-999,-99.99,,,-99.99,,2013-07-03 18:17:00,
2013-07-03 10:26:00,54.0,-99.9,-100.00,NE,56,0.0,0.0,-999,-99.99,,,-99.99,,2013-07-03 18:26:00,
2013-07-03 10:39:00,54.0,-99.9,-100.00,NE,56,0.0,0.0,-999,-99.99,,,-99.99,,2013-07-03 18:39:00,
2013-07-03 10:48:00,54.0,-99.9,-100.00,NE,56,0.0,0.0,-999,-99.99,,,-99.99,,2013-07-03 18:48:00,
2013-07-03 12:15:00,57.0,-99.9,-100.00,NNW,333,0.0,0.0,-999,-99.99,,,-99.99,,2013-07-03 20:15:00,
2013-07-03 12:27:00,57.0,-99.9,-100.00,NNW,333,0.0,0.0,-999,-99.99,,,-99.99,,2013-07-03 20:27:00,
2013-07-03 12:54:00,58.0,-99.9,-100.00,NNE,29,0.0,0.0,-999,-99.99,,,-99.99,,2013-07-03 20:54:00,
2013-07-03 13:14:00,58.0,-99.9,-100.00,NNE,29,0.0,0.0,-999,-99.99,,,-99.99,,2013-07-03 21:14:00,
2013-07-03 13:27:00,58.0,-99.9,-100.00,NNE,29,0.0,0.0,-999,-99.99,,,-99.99,,2013-07-03 21:27:00,
2013-07-03 13:38:00,58.0,-99.9,-100.00,NNE,29,0.0,0.0,-999,-99.99,,,-99.99,,2013-07-03 21:38:00,
2013-07-03 13:55:00,60.0,-99.9,-100.00,NW,309,0.0,0.0,-999,-99.99,,,-99.99,,2013-07-03 21:55:00,
2013-07-03 14:17:00,60.0,-99.9,-100.00,NW,309,0.0,0.0,-999,-99.99,,,-99.99,,2013-07-03 22:17:00,
2013-07-03 14:27:00,60.0,-99.9,-100.00,NW,309,0.0,0.0,-999,-99.99,,,-99.99,,2013-07-03 22:27:00,
2013-07-03 14:38:00,60.0,-99.9,-100.00,NW,309,0.0,0.0,-999,-99.99,,,-99.99,,2013-07-03 22:38:00,
2013-07-03 14:48:00,60.0,-99.9,-100.00,NW,309,0.0,0.0,-999,-99.99,,,-99.99,,2013-07-03 22:48:00,
2013-07-03 14:54:00,61.0,-99.9,-100.00,WNW,285,0.0,0.0,-999,-99.99,,,-99.99,,2013-07-03 22:54:00,
2013-07-03 15:15:00,61.0,-99.9,-100.00,WNW,285,0.0,0.0,-999,-99.99,,,-99.99,,2013-07-03 23:15:00,
2013-07-03 15:40:00,61.0,-99.9,-100.00,WNW,285,0.0,0.0,-999,-99.99,,,-99.99,,2013-07-03 23:40:00,
2013-07-03 15:46:00,61.0,-99.9,-100.00,WNW,285,0.0,0.0,-999,-99.99,,,-99.99,,2013-07-03 23:46:00,
2013-07-03 15:55:00,60.0,-99.9,-100.00,NNE,18,0.0,0.0,-999,-99.99,,,-99.99,,2013-07-03 23:55:00,
2013-07-03 16:27:00,60.0,-99.9,-100.00,NNE,18,0.0,0.0,-999,-99.99,,,-99.99,,2013-07-04 00:27:00,
2013-07-03 16:51:00,60.0,-99.9,-100.00,NNE,18,0.0,0.0,-999,-99.99,,,-99.99,,2013-07-04 00:51:00,
2013-07-03 17:55:00,62.0,-99.9,-100.00,ESE,120,2.0,8.0,-999,-99.99,,,-99.99,,2013-07-04 01:55:00,
2013-07-03 18:24:00,62.0,-99.9,-100.00,ESE,120,2.0,8.0,-999,-99.99,,,-99.99,,2013-07-04 02:24:00,
2013-07-03 18:42:00,62.0,-99.9,-100.00,ESE,120,2.0,8.0,-999,-99.99,,,-99.99,,2013-07-04 02:42:00,
2013-07-03 18:49:00,62.0,-99.9,-100.00,ESE,120,2.0,8.0,-999,-99.99,,,-99.99,,2013-07-04 02:49:00,
2013-07-03 20:11:00,60.0,-99.9,-100.00,SE,131,5.0,8.0,-999,-99.99,,,-99.99,,2013-07-04 04:11:00,
2013-07-03 20:22:00,60.0,-99.9,-100.00,SE,131,5.0,8.0,-999,-99.99,,,-99.99,,2013-07-04 04:22:00,
2013-07-03 20:33:00,60.0,-99.9,-100.00,SE,131,5.0,8.0,-999,-99.99,,,-99.99,,2013-07-04 04:33:00,
2013-07-03 20:43:00,60.0,-99.9,-100.00,SE,131,5.0,8.0,-999,-99.99,,,-99.99,,2013-07-04 04:43:00,
2013-07-03 21:12:00,60.0,-99.9,-100.00,SE,127,5.0,8.0,-999,-99.99,,,-99.99,,2013-07-04 05:12:00,
2013-07-03 21:22:00,60.0,-99.9,-100.00,SE,127,5.0,8.0,-999,-99.99,,,-99.99,,2013-07-04 05:22:00,
2013-07-03 21:33:00,60.0,-99.9,-100.00,SE,127,5.0,8.0,-999,-99.99,,,-99.99,,2013-07-04 05:33:00,
2013-07-03 21:43:00,60.0,-99.9,-100.00,SE,127,5.0,8.0,-999,-99.99,,,-99.99,,2013-07-04 05:43:00,
2013-07-03 21:52:00,60.0,-99.9,-100.00,SE,127,5.0,8.0,-999,-99.99,,,-99.99,,2013-07-04 05:52:00,
2013-07-03 22:22:00,58.0,-99.9,-100.00,SE,131,5.0,10.0,-999,-99.99,,,-99.99,,2013-07-04 06:22:00,
2013-07-03 22:34:00,58.0,-99.9,-100.00,SE,131,5.0,10.0,-999,-99.99,,,-99.99,,2013-07-04 06:34:00,
2013-07-03 22:43:00,58.0,-99.9,-100.00,SE,131,5.0,10.0,-999,-99.99,,,-99.99,,2013-07-04 06:43:00,
2013-07-03 22:53:00,58.0,-99.9,-100.00,SE,131,5.0,10.0,-999,-99.99,,,-99.99,,2013-07-04 06:53:00,
2013-07-03 23:12:00,57.0,-99.9,-100.00,East,90,0.0,0.0,-999,-99.99,,,-99.99,,2013-07-04 07:12:00,
2013-07-03 23:22:00,57.0,-99.9,-100.00,East,90,0.0,0.0,-999,-99.99,,,-99.99,,2013-07-04 07:22:00,
2013-07-03 23:34:00,57.0,-99.9,-100.00,East,90,0.0,0.0,-999,-99.99,,,-99.99,,2013-07-04 07:34:00,
2013-07-03 23:43:00,57.0,-99.9,-100.00,East,90,0.0,0.0,-999,-99.99,,,-99.99,,2013-07-04 07:43:00,
2013-07-03 23:52:00,57.0,-99.9,-100.00,East,90,0.0,0.0,-999,-99.99,,,-99.99,,2013-07-04 07:52:00,